LEVX

Vigo

Airport
ICAO code
LEVX
Summary
ICAO Region
EUR
ICAO Territory
Location

Vigo, Spain,

Coordinates
42° 13' 54" N , 8° 37' 36" W
KCC
Metar
LEVX 140600Z 19005KT 150V220 0550 R19/1800N R01/1000U RA FG BKN002 BKN003 OVC005 15/15 Q1016 NOSIG

Description

International airport serving Asturias, northwest Spain.

Climatology

Temperate Marine climate/Oceanic climate (Köppen climate classification Cfb). Moderately cool summer and comparatively warm winter with a temperature range of only 14°C. Prevailing south-westerly winds from the Atlantic Ocean.

Runways

Designator Length Width Surface Rops
2/20 2400 45 ASP Yes/Yes

Airport map

Aerial View

Airport accidents

SKYbrary Partners:

Safety knowledge contributed by: